Montauk, NY
on Sunday, December 10, 2017

Sunday
       
Previous Day Next Day
Daily Summary
 ActualAverage (KHTO)Record (KHTO)
Temperature
Mean Temperature °F °C °F °C  
Max Temperature 41°F 5°C 45°F 7°C 64°F 17°C (1946)
Min Temperature 36°F 2°C 28°F -2°C 8°F -13°C (1968)
Degree Days
Heating Degree Days 26    
Moisture
Dew Point 28°F -2°C   
Average Humidity 65    
Maximum Humidity 89    
Minimum Humidity 45    
Precipitation
Precipitation 0.00 in / 0.00 cm in / cm in / cm ()
Wind
Wind Speed 11 mph / 18 km/h   
Max Wind Speed 14 mph / 23 km/h   
Max Gust Speed 26 mph / 42 km/h   
Averages and records for this station are not official NWS values.
Key: T is trace of precipitation, MM is missing value
Source: NWS Daily Summary
Seasonal Weather Averages
Time(EST)TemperatureDew PointHumidity Pressure Visibility Wind DirectionWind SpeedGust SpeedPrecipitationEvents Conditions
12:54 AM 36.0°F 2.2°C 33.1°F 0.6°C 89% 29.66 in / 1004.3 hPa - NNW 11.5 mph / 18.5 km/h - N/A   Unknown
1:54 AM 36.0°F 2.2°C 33.1°F 0.6°C 89% 29.67 in / 1004.6 hPa - NNW 6.9 mph / 11.1 km/h - N/A   Unknown
2:54 AM 37.0°F 2.8°C 32.0°F 0.0°C 82% 29.69 in / 1005.2 hPa - NW 5.8 mph / 9.3 km/h - N/A   Unknown
3:54 AM 36.0°F 2.2°C 32.0°F 0.0°C 86% 29.69 in / 1005.3 hPa - NW 8.1 mph / 13.0 km/h - N/A   Unknown
4:54 AM 37.0°F 2.8°C 32.0°F 0.0°C 82% 29.70 in / 1005.7 hPa - NW 9.2 mph / 14.8 km/h - N/A   Unknown
5:54 AM 37.0°F 2.8°C 32.0°F 0.0°C 82% 29.74 in / 1007.0 hPa - WNW 11.5 mph / 18.5 km/h 17.3 mph / 27.8 km/h N/A   Unknown
6:54 AM 37.0°F 2.8°C 30.0°F -1.1°C 76% 29.77 in / 1008.0 hPa - WNW 13.8 mph / 22.2 km/h 19.6 mph / 31.5 km/h N/A   Unknown
7:54 AM 36.0°F 2.2°C 26.1°F -3.3°C 67% 29.81 in / 1009.4 hPa - WNW 10.4 mph / 16.7 km/h 21.9 mph / 35.2 km/h N/A   Unknown
8:54 AM 37.9°F 3.3°C 26.1°F -3.3°C 62% 29.84 in / 1010.3 hPa - NW 13.8 mph / 22.2 km/h 20.7 mph / 33.3 km/h N/A   Unknown
9:54 AM 39.0°F 3.9°C 28.0°F -2.2°C 65% 29.86 in / 1011.2 hPa - West 11.5 mph / 18.5 km/h 21.9 mph / 35.2 km/h N/A   Unknown
10:54 AM 41.0°F 5.0°C 27.0°F -2.8°C 57% 29.87 in / 1011.4 hPa - West 11.5 mph / 18.5 km/h 21.9 mph / 35.2 km/h N/A   Unknown
11:54 AM 41.0°F 5.0°C 30.0°F -1.1°C 65% 29.87 in / 1011.3 hPa - West 13.8 mph / 22.2 km/h 20.7 mph / 33.3 km/h N/A   Unknown
12:54 PM 41.0°F 5.0°C 28.9°F -1.7°C 62% 29.86 in / 1011.1 hPa - West 12.7 mph / 20.4 km/h 20.7 mph / 33.3 km/h N/A   Unknown
1:54 PM 41.0°F 5.0°C 28.0°F -2.2°C 60% 29.87 in / 1011.4 hPa - West 11.5 mph / 18.5 km/h 24.2 mph / 38.9 km/h N/A   Unknown
2:54 PM 41.0°F 5.0°C 27.0°F -2.8°C 57% 29.89 in / 1012.1 hPa - West 12.7 mph / 20.4 km/h 25.3 mph / 40.7 km/h N/A   Unknown
3:54 PM 41.0°F 5.0°C 27.0°F -2.8°C 57% 29.92 in / 1013.2 hPa - West 13.8 mph / 22.2 km/h 24.2 mph / 38.9 km/h N/A   Unknown
4:54 PM 39.9°F 4.4°C 27.0°F -2.8°C 60% 29.95 in / 1014.0 hPa - West 11.5 mph / 18.5 km/h 19.6 mph / 31.5 km/h N/A   Unknown
5:54 PM 41.0°F 5.0°C 21.0°F -6.1°C 45% 29.97 in / 1014.7 hPa - West 9.2 mph / 14.8 km/h 20.7 mph / 33.3 km/h N/A   Unknown
6:54 PM 39.9°F 4.4°C 26.1°F -3.3°C 58% 29.98 in / 1015.2 hPa - WSW 9.2 mph / 14.8 km/h - N/A   Unknown
7:54 PM 39.9°F 4.4°C 25.0°F -3.9°C 55% 29.99 in / 1015.4 hPa - WSW 10.4 mph / 16.7 km/h 18.4 mph / 29.6 km/h N/A   Unknown
8:54 PM 39.0°F 3.9°C 25.0°F -3.9°C 57% 30.00 in / 1015.9 hPa - WSW 9.2 mph / 14.8 km/h 18.4 mph / 29.6 km/h N/A   Unknown
9:54 PM 39.0°F 3.9°C 24.1°F -4.4°C 55% 30.01 in / 1016.1 hPa - WSW 9.2 mph / 14.8 km/h 19.6 mph / 31.5 km/h N/A   Unknown
10:54 PM 39.0°F 3.9°C 23.0°F -5.0°C 53% 30.01 in / 1016.2 hPa - WSW 12.7 mph / 20.4 km/h 20.7 mph / 33.3 km/h N/A   Unknown
11:54 PM 39.9°F 4.4°C 21.9°F -5.6°C 49% 30.01 in / 1016.0 hPa - West 12.7 mph / 20.4 km/h 26.5 mph / 42.6 km/h N/A   Unknown